| time (UTC) | temp F | wind direction | speed MPH | gust MPH | rain 1hr in | rain 24hr in | rain mn in | humidity % | barometer mb |
| 20260510030033 | 55 | 82 | 5.0 | 8.0 | 0.00 | 0.00 | 0.00 | 52 | 1017.8 |
| 20260510024532 | 57 | 188 | 0.0 | 2.0 | 0.00 | 0.00 | 0.00 | 51 | 1017.7 |
| 20260510023133 | 59 | 192 | 0.0 | 2.0 | 0.00 | 0.00 | 0.00 | 49 | 1017.6 |
| 20260510021533 | 61 | 217 | 2.0 | 4.0 | 0.00 | 0.00 | 0.00 | 48 | 1017.5 |
| 20260510020030 | 62 | 217 | 3.0 | 4.0 | 0.00 | 0.00 | 0.00 | 46 | 1017.6 |
| 20260510014530 | 63 | 217 | 2.0 | 4.0 | 0.00 | 0.00 | 0.00 | 45 | 1017.5 |
| 20260510013029 | 64 | 217 | 2.0 | 5.0 | 0.00 | 0.00 | 0.00 | 42 | 1017.6 |
| 20260510011535 | 65 | 224 | 4.0 | 8.0 | 0.00 | 0.00 | 0.00 | 41 | 1017.6 |
| 20260510010036 | 65 | 165 | 4.0 | 7.0 | 0.00 | 0.00 | 0.00 | 41 | 1017.6 |
| 20260510004526 | 65 | 226 | 4.0 | 8.0 | 0.00 | 0.00 | 0.00 | 42 | 1017.6 |
| 20260510003026 | 64 | 238 | 4.0 | 8.0 | 0.00 | 0.00 | 0.00 | 41 | 1017.7 |
| 20260510001527 | 64 | 235 | 4.0 | 9.0 | 0.00 | 0.00 | 0.00 | 42 | 1017.7 |
| 20260510000025 | 64 | 203 | 6.0 | 11.0 | 0.00 | 0.00 | 0.00 | 42 | 1017.6 |
| 20260509234526 | 64 | 210 | 8.0 | 15.0 | 0.00 | 0.00 | 0.00 | 41 | 1017.6 |
| 20260509233023 | 65 | 241 | 3.0 | 10.0 | 0.00 | 0.00 | 0.00 | 40 | 1017.4 |
| 20260509231530 | 65 | 188 | 4.0 | 8.0 | 0.00 | 0.00 | 0.00 | 40 | 1017.5 |
| 20260509230026 | 65 | 283 | 2.0 | 8.0 | 0.00 | 0.00 | 0.00 | 39 | 1017.6 |
| 20260509224521 | 65 | 229 | 2.0 | 8.0 | 0.00 | 0.00 | 0.00 | 38 | 1017.6 |
| 20260509223022 | 65 | 292 | 1.0 | 4.0 | 0.00 | 0.00 | 0.00 | 38 | 1017.6 |
| 20260509221530 | 65 | 293 | 2.0 | 8.0 | 0.00 | 0.00 | 0.00 | 38 | 1017.8 |
| 20260509220021 | 64 | 323 | 1.0 | 8.0 | 0.00 | 0.00 | 0.00 | 40 | 1017.9 |
| 20260509214518 | 64 | 275 | 2.0 | 6.0 | 0.00 | 0.00 | 0.00 | 40 | 1017.9 |
| 20260509213018 | 64 | 279 | 1.0 | 10.0 | 0.00 | 0.00 | 0.00 | 39 | 1018.1 |
| 20260509211516 | 64 | 239 | 2.0 | 9.0 | 0.00 | 0.00 | 0.00 | 39 | 1018.1 |
| 20260509210017 | 63 | 190 | 7.0 | 10.0 | 0.00 | 0.00 | 0.00 | 41 | 1018.2 |
| 20260509204515 | 63 | 213 | 5.0 | 9.0 | 0.00 | 0.00 | 0.00 | 40 | 1018.2 |
| 20260509203014 | 63 | 288 | 1.0 | 7.0 | 0.00 | 0.00 | 0.00 | 39 | 1018.1 |
| 20260509201514 | 64 | 248 | 4.0 | 9.0 | 0.00 | 0.00 | 0.00 | 38 | 1018.0 |
| 20260509200013 | 64 | 303 | 3.0 | 11.0 | 0.00 | 0.00 | 0.00 | 37 | 1017.9 |
| 20260509194516 | 63 | 218 | 6.0 | 10.0 | 0.00 | 0.00 | 0.00 | 38 | 1017.9 |
| 20260509193012 | 64 | 236 | 6.0 | 11.0 | 0.00 | 0.00 | 0.00 | 38 | 1018.1 |
| 20260509191509 | 63 | 163 | 4.0 | 7.0 | 0.00 | 0.00 | 0.00 | 39 | 1018.1 |
| 20260509190009 | 62 | 196 | 6.0 | 10.0 | 0.00 | 0.00 | 0.00 | 39 | 1018.2 |
| 20260509184521 | 63 | 246 | 6.0 | 10.0 | 0.00 | 0.00 | 0.00 | 38 | 1018.1 |
| 20260509183008 | 61 | 198 | 1.0 | 8.0 | 0.00 | 0.00 | 0.00 | 39 | 1018.2 |
| 20260509181506 | 62 | 151 | 5.0 | 10.0 | 0.00 | 0.00 | 0.00 | 39 | 1018.1 |
| 20260509180004 | 64 | 254 | 2.0 | 8.0 | 0.00 | 0.00 | 0.00 | 37 | 1017.9 |
| 20260509174502 | 63 | 214 | 4.0 | 7.0 | 0.00 | 0.00 | 0.00 | 38 | 1017.9 |
| 20260509173109 | 62 | 115 | 3.0 | 5.0 | 0.00 | 0.00 | 0.00 | 41 | 1017.9 |
| 20260509171608 | 61 | 53 | 5.0 | 8.0 | 0.00 | 0.00 | 0.00 | 40 | 1017.9 |
| 20260509170052 | 61 | 355 | 4.0 | 8.0 | 0.00 | 0.00 | 0.00 | 40 | 1017.8 |
| 20260509164553 | 61 | 350 | 5.0 | 10.0 | 0.00 | 0.00 | 0.00 | 39 | 1017.8 |
| 20260509163057 | 61 | 24 | 1.0 | 5.0 | 0.00 | 0.00 | 0.00 | 38 | 1017.7 |
| 20260509161549 | 61 | 355 | 2.0 | 9.0 | 0.00 | 0.00 | 0.00 | 38 | 1017.7 |
| 20260509160047 | 61 | 281 | 1.0 | 3.0 | 0.00 | 0.00 | 0.00 | 40 | 1017.4 |
| 20260509154544 | 61 | 281 | 1.0 | 4.0 | 0.00 | 0.00 | 0.00 | 41 | 1017.4 |
| 20260509153042 | 60 | 246 | 0.0 | 2.0 | 0.00 | 0.00 | 0.00 | 43 | 1017.3 |
| 20260509151537 | 59 | 246 | 2.0 | 4.0 | 0.00 | 0.00 | 0.00 | 43 | 1017.2 |
| 20260509150033 | 59 | 241 | 0.0 | 4.0 | 0.00 | 0.00 | 0.00 | 43 | 1017.1 |
| 20260509144529 | 59 | 62 | 0.0 | 6.0 | 0.00 | 0.00 | 0.00 | 45 | 1016.9 |
| 20260509143027 | 58 | 5 | 3.0 | 6.0 | 0.00 | 0.00 | 0.00 | 45 | 1016.8 |
| 20260509141534 | 57 | 5 | 3.0 | 8.0 | 0.00 | 0.00 | 0.00 | 45 | 1016.8 |
| 20260509140031 | 55 | 41 | 3.0 | 6.0 | 0.00 | 0.00 | 0.00 | 50 | 1016.6 |
| 20260509134517 | 53 | 15 | 3.0 | 9.0 | 0.00 | 0.00 | 0.00 | 51 | 1016.5 |
| 20260509133013 | 52 | 10 | 4.0 | 8.0 | 0.00 | 0.00 | 0.00 | 53 | 1016.5 |
| 20260509131514 | 52 | 30 | 5.0 | 7.0 | 0.00 | 0.00 | 0.00 | 55 | 1016.4 |
| 20260509130005 | 51 | 311 | 2.0 | 9.0 | 0.00 | 0.00 | 0.00 | 55 | 1016.1 |
| 20260509124600 | 49 | 288 | 3.0 | 4.0 | 0.00 | 0.00 | 0.00 | 57 | 1016.0 |
| 20260509123104 | 50 | 342 | 0.0 | 3.0 | 0.00 | 0.00 | 0.00 | 56 | 1016.0 |
| 20260509121556 | 50 | 46 | 3.0 | 9.0 | 0.00 | 0.00 | 0.00 | 56 | 1015.8 |
| 20260509120101 | 50 | 14 | 2.0 | 6.0 | 0.00 | 0.00 | 0.00 | 56 | 1015.5 |
| 20260509114607 | 50 | 30 | 2.0 | 6.0 | 0.00 | 0.00 | 0.00 | 56 | 1015.4 |
| 20260509113055 | 49 | 311 | 0.0 | 3.0 | 0.00 | 0.00 | 0.00 | 58 | 1015.2 |
| 20260509111549 | 49 | 311 | 1.0 | 3.0 | 0.00 | 0.00 | 0.00 | 57 | 1015.2 |
| 20260509110052 | 49 | 312 | 2.0 | 4.0 | 0.00 | 0.00 | 0.00 | 58 | 1015.0 |
| 20260509104553 | 49 | 294 | 2.0 | 4.0 | 0.00 | 0.00 | 0.00 | 57 | 1014.8 |
| 20260509103043 | 48 | 309 | 3.0 | 4.0 | 0.00 | 0.00 | 0.00 | 57 | 1014.7 |
| 20260509101543 | 48 | 309 | 2.0 | 4.0 | 0.00 | 0.00 | 0.00 | 57 | 1014.6 |
| 20260509100041 | 48 | 360 | 1.0 | 4.0 | 0.00 | 0.00 | 0.00 | 57 | 1014.5 |
| 20260509094538 | 48 | 302 | 2.0 | 4.0 | 0.00 | 0.00 | 0.00 | 57 | 1014.4 |
| 20260509093036 | 49 | 302 | 3.0 | 5.0 | 0.00 | 0.00 | 0.00 | 56 | 1014.3 |
| 20260509091531 | 49 | 292 | 2.0 | 5.0 | 0.00 | 0.00 | 0.00 | 54 | 1014.1 |
| 20260509090030 | 50 | 339 | 2.0 | 4.0 | 0.00 | 0.00 | 0.00 | 54 | 1014.0 |
| 20260509084532 | 50 | 292 | 1.0 | 4.0 | 0.00 | 0.00 | 0.00 | 54 | 1013.9 |
| 20260509083023 | 51 | 292 | 3.0 | 4.0 | 0.00 | 0.00 | 0.00 | 53 | 1013.7 |
| 20260509081535 | 52 | 315 | 1.0 | 3.0 | 0.00 | 0.00 | 0.00 | 51 | 1013.7 |
| 20260509080019 | 52 | 315 | 2.0 | 4.0 | 0.00 | 0.00 | 0.00 | 51 | 1013.7 |
| 20260509074517 | 53 | 316 | 1.0 | 3.0 | 0.00 | 0.00 | 0.00 | 50 | 1013.6 |
| 20260509073015 | 53 | 316 | 2.0 | 4.0 | 0.00 | 0.00 | 0.00 | 50 | 1013.6 |
| 20260509071513 | 53 | 296 | 2.0 | 4.0 | 0.00 | 0.00 | 0.00 | 50 | 1013.5 |
| 20260509070009 | 55 | 295 | 2.0 | 4.0 | 0.00 | 0.00 | 0.00 | 47 | 1013.4 |
| 20260509064507 | 55 | 336 | 4.0 | 8.0 | 0.00 | 0.00 | 0.00 | 47 | 1013.2 |
| 20260509063005 | 55 | 346 | 4.0 | 6.0 | 0.00 | 0.00 | 0.00 | 46 | 1013.1 |
| 20260509061619 | 56 | 341 | 3.0 | 5.0 | 0.00 | 0.00 | 0.00 | 44 | 1013.0 |
| 20260509060101 | 57 | 344 | 3.0 | 5.0 | 0.00 | 0.00 | 0.00 | 42 | 1012.8 |
| 20260509054614 | 58 | 9 | 4.0 | 9.0 | 0.00 | 0.00 | 0.00 | 41 | 1012.8 |
| 20260509053143 | 59 | 22 | 5.0 | 12.0 | 0.00 | 0.00 | 0.00 | 40 | 1012.6 |
| 20260509051556 | 58 | 360 | 5.0 | 12.0 | 0.00 | 0.00 | 0.00 | 36 | 1012.5 |
| 20260509050055 | 60 | 10 | 5.0 | 10.0 | 0.00 | 0.00 | 0.00 | 33 | 1012.4 |
| 20260509044554 | 62 | 360 | 6.0 | 11.0 | 0.00 | 0.00 | 0.00 | 31 | 1012.2 |
| 20260509043056 | 61 | 304 | 4.0 | 10.0 | 0.00 | 0.00 | 0.00 | 31 | 1012.0 |
| 20260509041553 | 56 | 265 | 4.0 | 7.0 | 0.00 | 0.00 | 0.00 | 37 | 1011.8 |
| 20260509040110 | 57 | 328 | 1.0 | 3.0 | 0.00 | 0.00 | 0.00 | 37 | 1011.4 |
| 20260509034612 | 58 | 327 | 1.0 | 4.0 | 0.00 | 0.00 | 0.00 | 35 | 1011.2 |
| 20260509033052 | 59 | 320 | 2.0 | 5.0 | 0.00 | 0.00 | 0.00 | 33 | 1011.0 |
| 20260509031551 | 60 | 342 | 1.0 | 2.0 | 0.00 | 0.00 | 0.00 | 32 | 1010.7 |